www.pogodaiklimat.ru

Погода и климат >> Архив погоды >> Россия >> Иркутская область >> Киренск


АРХИВ ПОГОДЫ в Киренске

Время (UTC), дата Ветер
(напр.,м/с)
 
Видим.   Явления Облачность Т
(С)
Тd
(С)
f
(%)
Тe
(С)
Тes
(С)
Комфортность P
(гПа)
Po
(гПа)
Тmin
(С)
Tmax
(С)
R
(мм)
R24
(мм)
S
(см)
00 18.03 С 4 50 км 10/0
[Cs]
-8.3 -10.9 81 -15 -15 1017.5 984.2 -8.3 43
03 18.03 СВ 5 50 км 10/5 600 м
[Cb cap Ci fib]
-6.2 -11.1 68 -13 -12 1019.1 986.0 -8.8
06 18.03 С 3 50 км 10/6 600 м
[Cb cap Ci fib]
-3.1 -12.4 49 -8 -6 1019.4 986.7
09 18.03 С 3 50 км 10/4 600 м
[Cb cap Ci fib]
-2.8 -13.9 42 -7 -7 1020.5 987.8
12 18.03 С 2 н/о 8/0
[Ac trans Ci fib]
-7.8 -14.9 57 -12 -12 1023.4 990.0 -2.1
15 18.03 С 1 н/о 4/0
[Ci fib]
-14.4 -16.2 86 -17 -17 1025.3 991.0
18 18.03 штиль 0 н/о 4/0
[Ci fib]
-18.5 -20.0 88 -19 -19 1026.6 991.7
21 18.03 штиль 0 н/о 6/0
[Ac trans Ci fib]
-21.6 -23.6 84 -22 -22 1027.1 991.8
00 19.03 СЗ 1 50 км 10/3 1000 м
[Sc Ac trans Ci fib]
-22.1 -24.4 82 -25 -25 1028.3 992.8 -23.1 43
03 19.03 С 1 50 км 10/3 1000 м
[Sc Ac trans Cs]
-12.9 -17.1 71 -15 -13 1026.6 992.4
06 19.03 СВ 1 50 км 10/4 600 м
[Cu hum Ac trans Cs]
-3.5 -15.0 41 -5 -3 1023.7 990.8
09 19.03 З 4 50 км 10/4 600 м
[Cb cap Ac As]
-2.2 -15.1 36 -7 -7 1022.5 989.8
12 19.03 штиль 0 н/о 10/3 600 м
[Cb cap Ac trans Cs]
-5.3 -14.0 50 -6 -6 1023.9 990.8 -1.1
15 19.03 штиль 0 н/о 10/5 600 м
[Cb cap Ac trans Ci fib]
-10.5 -14.6 72 -11 -11 1025.3 991.5
18 19.03 З 1 н/о 6/3 600 м
[Cb cap Ac trans Ci fib]
-16.1 -17.7 87 -19 -19 1026.1 991.6
21 19.03 СЗ 1 н/о 8/0
[Ac trans Ci fib]
-18.8 -20.5 86 -22 -22 1026.9 991.9
00 20.03 штиль 0 50 км 10/3
[Sc Ac trans Ci fib]
-17.4 -19.3 85 -17 -17 1027.7 992.9 -19.1 42
03 20.03 СВ 1 50 км 10/0
[Ci fib]
-8.4 -14.4 62 -11 -6 1026.9 993.3
06 20.03 ЮЗ 1 50 км 9/8 600 м
[Cu med, cong Ci fib]
-2.1 -12.6 44 -3 -2 1025.0 992.3
09 20.03 З 1 50 км 10/4 600 м
[Sc diur, vesp Ci fib]
-1.3 -9.3 54 -3 -2 1024.7 992.0
12 20.03 ЮЗ 1 н/о {ливн. осадки} 10/5 600 м
[Cb cap Ci fib]
-4.4 -6.8 83 -7 -7 1025.8 992.8 +0.2 0.0
15 20.03 З 2 н/о 10/0
[Ci fib]
-4.4 -8.6 72 -8 -8 1026.0 992.9
18 20.03 Ю 2 н/о 10/0
[Cs]
-5.3 -8.6 78 -9 -9 1025.2 992.1
21 20.03 ЮЗ 1 н/о слаб. ливневой снег 10/8 600 м
[Cb cap Cs]
-6.7 -7.8 92 -9 -9 1024.4 991.1
00 21.03 Ю 2 10 км слаб. ливневой снег 10/10 600 м
[Cb cap]
-6.5 -7.7 91 -11 -11 1024.0 990.7 -6.8 0.5 42
03 21.03 Ю 1 10 км слаб. ливневой снег 10/8 600 м
[Cb cap Ci fib]
-3.2 -6.8 76 -5 -4 1023.7 990.9
06 21.03 ЮВ 1 4000 м слаб. ливневой снег 10/8 600 м
[Cb cap Ci fib]
-2.9 -5.9 80 -5 -4 1023.5 990.7
09 21.03 СВ 2 10 км слаб. ливневой снег 10/6 600 м
[Cb cap Ci fib]
-2.8 -9.3 61 -6 -6 1024.5 991.7
12 21.03 З 1 20 км {ливн. осадки} 4/0
[Ac trans Ci fib]
-7.3 -11.9 70 -9 -9 1027.3 993.9 -1.6 0.5
15 21.03 штиль 0 н/о 3/0
[Ci fib]
-14.8 -15.8 92 -15 -15 1030.0 995.5
18 21.03 штиль 0 н/о ясно -18.6 -20.3 86 -19 -19 1031.7 996.6
21 21.03 штиль 0 н/о ясно -21.6 -23.9 82 -22 -22 1032.0 996.5
00 22.03 штиль 0 50 км 10/0
[Cs]
-19.3 -21.3 84 -19 -18 1031.6 996.4 -22.0 44
03 22.03 Ю 4 50 км 10/3 600 м
[Sc Ac trans Ci fib]
-5.5 -10.9 66 -12 -10 1027.5 994.2
06 22.03 ЮЗ 6-11
{12}
50 км позёмок 10/8 600 м
[Cb cap Ac trans Ci fib]
-1.7 -9.4 56 -8 -8 1023.6 990.9
09 22.03 ЮЗ 6-12
{13}
50 км позёмок 10/8 600 м
[Cb cap Ac trans Cs]
-0.6 -8.7 54 -7 -7 1020.7 988.2
12 22.03 ЮЗ 6-11
{12}
н/о позёмок {ливн. осадки} 10/8 600 м
[Cb cap Ac trans Ci fib]
-0.8 -8.1 58 -7 -7 1018.4 986.0 -0.5 0.0
15 22.03 ЮЗ 4
{11}
н/о {метель} 10/8 600 м
[Cb cap Ac trans Ci fib]
-1.5 -8.1 61 -7 -7 1016.0 983.6
18 22.03 Ю 6
{11}
н/о {метель} 10/6 600 м
[Cb cap Ac As]
-2.0 -8.5 61 -9 -9 1012.1 979.8
21 22.03 ЮЗ 6
{12}
н/о 10/6 600 м
[Cb cap Ac As]
-2.2 -8.5 62 -9 -9 1008.5 976.3
00 23.03 ЮЗ 3 4000 м слаб. ливневой снег 10/6 600 м
[Cb cap Ac trans Cs]
-2.4 -4.4 86 -8 -7 1007.6 975.4 -2.8 0.0 43
03 23.03 З 5 20 км слаб. ливневой снег 10/8 600 м
[Cb cap Ac trans Ci fib]
-0.5 -4.4 75 -7 -6 1008.2 976.2
06 23.03 З 4
{12}
4000 м слаб. ливневой снег 10/8 600 м
[Cb cap Ac trans Ci fib]
+0.6 -5.8 62 -4 -4 1008.7 976.8
09 23.03 З 4
{13}
50 км {ливн. осадки} 10/6 600 м
[Cb cap Ac trans Ci fib]
+1.3 -8.2 49 -3 -3 1009.0 977.1
12 23.03 З 4
{11}
20 км в посл. час ливневой снег 10/5 600 м
[Cb cap Ac trans Ci fib]
-2.0 -4.1 86 -8 -8 1010.6 978.4 +1.7 0.7
15 23.03 З 2
{10}
н/о {ливн. осадки} 10/8 600 м
[Cb cap Ac trans Ci fib]
-4.4 -8.4 74 -8 -8 1012.0 979.4
18 23.03 СЗ 2 н/о {ливн. осадки} 10/4 600 м
[Cb cap Ac trans Ci fib]
-9.4 -14.4 67 -14 -14 1014.0 980.7
21 23.03 СЗ 2 н/о 8/3 600 м
[Cb cap Ac trans Ci fib]
-13.8 -19.0 65 -19 -19 1016.1 982.1
00 24.03 СЗ 2 50 км 5/0
[Ci fib]
-15.3 -21.8 57 -20 -20 1019.1 984.9 -16.7 0.0 44
03 24.03 С 2 50 км 3/0
[Ci fib]
-11.3 -22.6 39 -16 -10 1020.2 986.4
06 24.03 З 3 50 км 1/0
[Ci fib]
-7.7 -22.2 30 -13 -8 1020.0 986.7
09 24.03 С 2 50 км 3/0
[Ci fib]
-6.8 -21.1 31 -10 -9 1021.2 988.0
12 24.03 СЗ 1 50 км 3/0
[Ci fib]
-13.0 -21.7 48 -15 -15 1023.1 989.0 -6.2
15 24.03 штиль 0 н/о 3/0
[Ci fib]
-20.0 -23.0 77 -20 -20 1024.8 989.8
18 24.03 штиль 0 н/о ясно -23.9 -26.1 82 -24 -24 1025.5 989.9
21 24.03 штиль 0 н/о ясно -27.4 -30.0 78 -27 -27 1026.4 990.3

 

Местоположение метеостанции Киренск (Иркутская область, Россия): широта 57.77 долгота 108.00 высота над уровнем моря 258 м.

В архиве по умолчанию представлена погода в Киренске за последнюю неделю. Архивные данные за месяц целиком и за предыдущие месяцы, начиная с января 2011 года, Вы можете получить, выбрав интересующий диапазон дат из раскрывающегося списка и нажав кнопку "Ввод!".


*Определитесь, кто Вы:
робот инопланетянин человек

Внимание! Время в таблицах - всемирное. Для получения местного времени необходимо прибавить поправку, которая равна 8 ч.

Смотрите также архив погоды в соседних городах и на ближайших метеорологических станциях:

Погода в Токме (Иркутская область, Россия) (145 км)
Погода в Казачинске (Иркутская область, Россия) (163 км)
Погода в Усть-Куте (Иркутская область, Россия) (171 км)
Погода в Максимово (Иркутская область, Россия) (200 км)
Погода в Ике (Иркутская область, Россия) (201 км)
Погода в Даване (Бурятия, Россия) (230 км)
Погода в Орлинге (Иркутская область, Россия) (233 км)
Погода в Нижнеангарске (Бурятия, Россия) (239 км)
Погода в Преображенке (Иркутская область, Россия) (254 км)
Погода в Новой Игирме (Иркутская область, Россия) (256 км)

Пояснения к столбцам:

Ветер - указаны скорость ветра в м/с - средняя за 10 мин, порывы в срок и между сроками (в фигурных скобках) и направление, откуда дует ветер: С - северный, СВ - северо-восточный, В - восточный, ЮВ - юго-восточный, Ю - южный, ЮЗ - юго-западный, З - западный, СЗ - северо-западный.
Видимость - горизонтальная дальность видимости в метрах или километрах. При видимости от 1 до 10 км при отсутствии осадков обычно наблюдается дымка, при ухудшении видимости до 1 км и менее - туман. В сухую погоду видимость может ухудшаться дымом, пылью или мглою.
Явления - указаны атмосферные явления, наблюдавшиеся в срок или в последний час перед сроком; фигурными скобками обозначены явления, наблюдавшиеся между сроками (за 1-3 часа до срока); квадратными скобками обозначены град или гололедные отложения с указанием их диаметра в мм.
Облачность - указаны через наклонную черту общая и нижняя облачность в баллах и высота нижней границы облаков в метрах; квадратными скобками обозначены формы облаков: Ci - перистые, Cs - перисто-слоистые, Cc - перисто-кучевые, Ac - высококучевые, As - высокослоистые, Sc - слоисто-кучевые, Ns - слоисто-дождевые, Cu - кучевые, Cb - кучево-дождевые. Подробнее классификацию облаков см. в Атласе облаков (PDF).
T - Температура воздуха - температура, измеренная на высоте 2 м над землей.
Td - Температура точки росы - температура, при понижении до которой содержащийся в воздухе водяной пар достигнет насыщения.
f - Относительная влажность воздуха - влажноcть воздуха, измеренная на высоте 2 м над землей.
Te - Эффективная температура - температура, которую ощущает одетый по сезону человек в тени. Характеристика душности погоды. При расчете учитывается влияние влажности воздуха и скорости ветра на теплоощущения человека.
Tes - Эффективная температура на солнце - температура, которую ощущает человек, с поправкой на солнечный нагрев. Характеристика знойности погоды. Зависит от высоты солнца над горизонтом, облачности и скорости ветра. Ночью, в пасмурную погоду, а также при ветре 12 м/с и более поправка равна нулю.
P - Атмосферное давление - приведенное к уровню моря атмосферное давление.
Po - Атмосферное давление - измеренное на уровне метеостанции атмосферное давление.
Tmin - Минимальная температура - минимум температуры воздуха на высоте 2 м над землей.
Tmax - Максимальная температура - максимум температуры воздуха на высоте 2 м над землей.
R - Количество осадков - Количество выпавших осадков за период времени, мм. При наведении курсора мыши на число - период времени, за который выпало указанное количество осадков.
R24 - Количество осадков - Количество выпавших осадков за 24 часа, мм.
S - Снежный покров - Высота снежного покрова, см. При наведении курсора мыши на число - состояние снежного покрова и степень покрытия местности в баллах.